SCP
0 0 0 0 0 0 0 0 0 0 0 0 0 0 0 0 0 0 0 0 0 0 0 0 0 0 0 0 0 0 0 0 0 0 0 0 0 0 0 0 0 0 0
0 0 0 0 0 0 0 0 0 0 0 0 0 0 0 0 0 0 0 0 0 0 0 0 0 0 0 0 0 0 0 0 0 0 0 0 0 0 0 0 0 0 0
0 0 0 0 0 0 0 0 0 0 0 0 0 0 0 0 0 0 0 0 0 0 0 0 0 0 0 0 0 0 0 0 0 0 0 0 0 0 0 0 0 0 0
0 0 0 0 0 0 0 0 0 0 0 0 0 0 0 0 0 0 0 0 0 0 0 0 0 0 0 0 0 0 0 0 0 0 0 0 0 0 0 0 0 0 0
0 0 0 0 0 0 0 0 0 0 0 0 0 0 0 0 0 0 0 0 0 0 0 0 0 0 0 0 0 0 0 0 0 0 0 0 0 0 0 0 0 0 0
0 0 0 0 0 0 0 0 0 0 0 0 0 0 0 0 0 0 0 0 0 0 0 0 0 0 0 0 0 0 0 0 0 0 0 0 0 0 0 0 0 0 0
0 0 0 0 0 0 0 0 0 0 0 0 0 0 0 0 0 0 0 0 0 0 0 0 0 0 0 0 0 0 0 0 0 0 0 0 0 0 0 0 0 0 0
0 0 0 0 0 0 0 0 0 0 0 0 0 0 0 0 0 0 0 0 0 0 0 0 0 0 0 0 0 0 0 0 0 0 0 0 0 0 0 0 0 0 0
0 0 0 0 0 0 0 0 0 0 0 0 0 0 0 0 0 0 0 0 0 0 0 0 0 0 0 0 0 0 0 0 0 0 0 0 0 0 0 0 0 0 0
0 0 0 0 0 0 0 0 0 0 0 0 0 0 0 0 0 0 0 0 0 0 0 0 0 0 0 0 0 0 0 0 0 0 0 0 0 0 0 0 0 0 0
0 0 0 0 0 0 0 0 0 0 0 0 0 0 0 0 0 0 0 0 0 0 0 0 0 0 0 0 0 0 0 0 0 0 0 0 0 0 0 0 0 0 0
0 0 0 0 0 0 0 0 0 0 0 0 0 0 0 0 0 0 0 0 0 0 0 0 0 0 0 0 0 0 0 0 0 0 0 0 0 0 0 0 0 0 0
0 0 0 0 0 0 0 0 0 0 0 0 0 0 0 0 0 0 0 0 0 0 0 0 0 0 0 0 0 0 0 0 0 0 0 0 0 0 0 0 0 0 0
0 0 0 0 0 0 0 0 0 0 0 0 0 0 0 0 0 0 0 0 0 0 0 0 0 0 0 0 0 0 0 0 0 0 0 0 0 0 0 0 0 0 0
0 0 0 0 0 0 0 0 0 0 0 0 0 0 0 0 0 0 0 0 0 0 0 0 0 0 0 0 0 0 0 0 0 0 0 0 0 0 0 0 0 0 0
-0 -0 0 0 0 0 0 0 0 0 0 0 0 0 0 0 0 0 0 0 0 0 0 0 0 0 0 0 0 0 0 0 0 0 0 0 0 0 0 0 0 0 0
-0 -0 0 0 0 0 0 0 0 0 0 0 0 0 0 0 0 0 0 0 0 0 0 0 0 0 0 0 0 0 0 -0 0 0 0 0 0 0 0 0 0 0 0
-0 -0 -0 0 0 0 0 0 0 0 0 0 0 0 0 0 0 0 0 0 0 0 0 0 0 0 0 0 0 0 0 0 0 0 0 0 0 0 0 0 0 0 0
-0 -0 -0 -0 0 0 0 0 0 0 0 0 0 0 0 0 0 0 0 0 0 0 0 0 0 0 0 0 0 0 0 0 0 0 0 0 0 0 0 0 0 0 0
0 0 0 -0 0 0 0 0 0 0 0 0 0 0 0 0 0 0 0 0 0 0 0 0 0 0 0 0 0 0 0 0 0 0 0 0 0 0 0 0 0 0 0
0 0 0 0 -0 0 0 0 0 0 0 0 0 0 0 0 0 0 0 0 0 0 0 0 0 0 0 0 0 0 0 0 0 0 0 0 0 0 0 0 0 0 0
0 0 0 0 0 0 0 0 0 0 0 0 0 0 0 0 0 0 0 0 0 0 0 0 0 0 0 0 0 0 0 0 0 0 0 0 0 0 0 0 0 0 0
0 0 0 0 0 0 0 0 0 0 0 0 0 0 0 0 0 0 0 0 0 0 0 0 0 0 0 0 0 0 0 0 0 0 0 0 0 0 0 0 0 0 0
0 0 0 0 0 0 0 0 0 0 0 0 0 0 0 0 0 0 0 0 0 0 0 0 0 0 0 0 0 0 0 0 0 0 0 0 0 0 0 0 0 0 0
0 0 0 0 0 0 0 0 0 0 0 0 0 0 0 0 0 0 0 0 0 0 0 0 0 0 0 0 0 0 0 0 0 0 0 0 0 0 0 0 0 0 0
0 0 0 0 0 0 0 0 0 0 0 0 0 0 0 0 0 0 0 0 0 0 0 0 0 0 0 0 0 0 0 0 0 0 0 0 0 0 0 0 0 0 0
Wind_Speed_500mb
42 57 69 76 83 84 83 80 85 84 71 68 55 56 51 44 39 35 31 27 23 20 18 15 13 12 10 9 7 9 10 15 26 32 36 38 40 35 30 26 27 30 34
31 44 58 68 71 71 72 69 77 68 66 62 61 50 49 44 39 35 30 26 23 20 17 14 15 12 9 8 8 9 10 12 22 34 34 35 34 30 29 31 30 34 35
23 34 45 54 61 65 68 67 71 67 63 64 64 53 49 42 39 34 31 27 23 19 15 13 12 10 8 7 7 10 10 12 17 30 35 31 32 36 37 36 35 34 37
33 21 31 40 47 55 59 61 62 66 62 64 60 47 46 40 38 35 31 28 23 18 13 12 10 8 6 8 6 8 8 14 20 28 32 32 34 37 43 47 45 43 45
38 29 20 28 37 44 53 55 57 56 56 57 47 47 44 40 38 35 32 28 22 18 14 11 7 4 6 8 10 11 11 16 24 31 34 38 39 43 48 51 58 60 55
30 31 27 23 25 37 46 46 54 52 43 48 49 48 45 43 40 37 33 27 23 17 13 9 6 5 6 8 13 16 15 18 23 31 36 36 40 44 47 53 60 67 72
24 25 23 25 34 40 40 43 45 43 50 58 55 50 46 43 40 36 32 26 22 19 15 11 6 4 7 7 9 13 15 18 22 30 34 33 40 44 47 53 56 62 65
29 25 22 21 23 34 43 49 49 54 62 56 55 49 47 42 39 35 31 27 25 20 17 11 6 5 6 7 9 11 13 15 18 23 26 28 33 39 45 52 58 63 55
47 27 28 23 26 33 41 47 55 58 55 55 51 50 46 42 40 36 32 27 24 23 17 13 9 8 6 8 11 10 13 14 15 15 23 25 32 41 44 51 52 47 45
66 41 27 35 32 31 35 45 50 51 54 53 50 46 42 40 39 35 31 31 26 22 20 18 12 6 6 9 13 14 12 12 14 16 18 24 33 40 46 44 34 34 35
55 60 35 33 40 32 32 42 48 52 51 52 51 46 43 43 35 37 37 27 24 26 25 18 13 9 9 9 14 17 15 11 14 16 18 24 31 39 38 27 23 27 25
46 52 56 34 40 43 45 48 50 55 56 56 51 49 48 42 48 45 34 29 30 27 26 20 16 13 11 10 13 16 16 15 14 15 19 23 29 35 28 18 20 20 25
46 42 47 46 31 42 54 60 64 66 66 62 58 55 52 55 52 41 35 34 34 33 24 23 18 16 14 10 10 14 15 13 13 14 16 18 27 28 18 12 14 17 24
54 45 42 42 38 37 46 63 62 68 69 67 63 64 60 58 51 46 43 42 35 32 31 24 22 18 15 11 8 10 14 12 9 9 9 14 23 21 13 6 7 14 20
55 49 41 40 36 38 43 61 62 68 72 74 79 67 62 57 56 46 40 40 36 32 28 27 24 20 17 11 5 8 11 9 7 5 5 13 18 14 7 3 7 12 15
56 51 45 40 42 39 47 54 65 75 88 78 80 71 60 54 46 43 38 39 37 40 34 26 22 21 18 11 4 4 8 8 6 3 3 12 11 8 2 6 9 11 12
51 49 49 43 40 48 48 56 64 63 72 75 80 73 56 48 47 43 46 47 45 40 32 27 24 19 15 10 7 3 5 9 10 3 4 8 7 2 2 6 6 6 8
50 47 47 47 41 46 52 54 54 64 61 72 74 75 57 52 52 52 52 52 52 46 34 28 25 21 18 13 7 5 4 12 13 6 4 7 3 2 5 6 5 3 8
46 45 44 43 42 41 52 51 52 56 61 63 73 84 64 56 55 57 59 60 54 42 37 33 26 22 19 13 10 6 3 10 16 12 5 4 4 5 8 8 4 2 7
37 36 37 37 37 38 44 50 50 51 61 65 64 70 74 65 70 67 66 64 51 42 39 34 30 24 19 15 12 7 0 8 14 15 8 3 6 8 10 9 5 1 6
35 36 34 32 28 28 36 48 51 49 53 62 60 63 85 78 78 75 72 62 53 48 42 36 30 29 24 17 13 8 3 4 9 13 10 5 8 10 13 11 7 3 3
31 31 29 29 26 18 27 38 44 45 48 54 59 65 87 80 72 69 65 57 52 49 45 41 35 32 27 21 15 10 7 4 5 7 7 5 10 11 14 13 9 6 3
28 24 23 20 20 17 15 26 35 39 43 49 52 64 89 91 73 65 62 60 56 51 48 43 39 36 32 25 20 15 12 11 8 9 7 3 7 13 13 15 12 9 7
25 23 20 17 14 8 6 9 17 29 35 42 56 62 86 87 69 63 63 59 57 53 53 49 42 38 35 32 27 23 19 16 14 13 11 7 8 13 14 16 16 14 13
19 18 16 13 12 9 6 5 7 15 19 29 46 55 66 67 64 62 59 55 53 49 50 48 41 40 39 38 33 29 27 22 20 18 17 15 14 14 17 19 21 19 17
15 15 14 13 10 6 4 7 11 15 27 35 37 37 40 46 49 50 51 51 47 41 44 46 45 41 37 37 36 34 32 29 29 28 25 24 22 21 20 22 25 24 23
Wind_Direction_500mb
261 243 235 231 227 229 223 223 219 212 209 207 204 208 203 208 212 214 215 215 214 215 218 223 231 234 237 245 272 287 280 290 297 319 330 338 336 330 334 333 327 327 329
267 249 237 233 226 224 225 223 221 207 209 205 212 202 200 202 206 208 209 208 207 208 213 223 232 233 236 251 281 300 295 300 318 326 337 345 349 342 338 328 329 329 331
296 259 247 238 229 224 225 219 210 210 202 200 202 200 199 198 201 201 201 198 198 202 209 225 234 238 240 263 289 306 295 310 317 328 338 344 344 343 338 333 331 332 336
332 290 255 243 235 228 220 211 204 197 196 202 201 192 194 194 194 194 195 193 192 193 200 216 230 243 266 278 278 293 304 321 329 329 340 339 339 344 339 337 334 337 331
342 316 290 255 234 225 218 209 203 197 196 201 194 191 191 192 193 190 190 189 188 189 194 208 231 269 300 275 251 266 294 328 339 333 334 326 335 340 336 333 330 331 330
314 316 294 262 247 216 206 196 196 191 193 207 199 196 193 190 188 188 190 188 188 189 192 204 230 283 309 294 261 263 281 309 327 323 319 322 333 333 335 330 330 331 331
314 295 280 276 244 228 207 203 208 206 211 204 196 195 191 190 189 189 190 190 191 194 196 201 222 289 314 304 293 279 277 294 304 314 314 322 325 331 328 327 328 329 327
315 303 264 242 235 226 217 211 209 211 208 198 197 192 193 192 191 191 191 194 199 200 204 205 224 269 290 322 308 291 266 275 299 311 319 325 324 325 328 328 330 327 328
347 308 283 231 227 227 227 220 215 208 202 201 198 196 194 195 194 195 196 201 205 208 210 216 224 244 296 317 324 316 280 277 292 314 318 329 331 326 328 329 330 336 348
345 336 287 257 233 225 226 230 221 212 207 203 201 199 199 199 200 198 202 205 207 215 220 228 221 245 293 318 323 323 309 270 288 302 322 331 329 327 332 335 345 356 3
331 339 317 258 239 219 225 223 226 218 210 206 206 202 203 204 204 211 209 205 208 221 225 230 234 257 289 315 322 324 326 290 282 299 315 320 327 333 335 346 2 9 27
317 327 330 299 254 234 222 220 217 220 213 210 206 210 208 205 214 211 210 208 213 219 223 228 238 252 273 299 315 324 327 313 275 298 305 321 331 337 341 358 10 29 40
321 310 320 315 292 251 232 224 224 219 213 211 212 212 210 215 214 212 212 216 216 216 216 222 226 239 253 276 306 324 334 329 295 281 305 325 336 340 348 6 25 44 43
316 314 303 312 301 276 244 229 228 222 216 215 215 218 213 217 216 213 215 216 210 210 216 216 222 221 234 253 293 327 350 334 301 293 314 333 340 345 354 17 61 62 51
309 310 309 303 296 280 263 238 225 226 226 221 205 210 217 217 216 216 217 213 207 205 209 214 211 203 214 230 277 344 349 333 330 315 321 337 346 342 359 75 105 89 65
305 307 306 303 295 278 266 262 240 229 230 226 206 226 223 223 223 221 212 207 201 204 203 203 201 196 202 212 224 335 342 359 7 347 307 339 349 336 2 131 125 106 68
301 303 303 299 291 283 261 256 257 249 241 231 215 228 222 218 218 218 210 207 204 200 198 193 201 188 185 200 218 258 348 24 26 26 332 349 338 326 184 160 142 108 56
298 298 298 297 291 277 264 256 255 253 240 229 214 213 218 211 211 213 205 203 201 200 191 191 196 190 187 192 208 253 357 23 20 10 339 340 281 208 193 189 158 93 31
302 299 296 294 288 275 261 252 250 252 251 237 218 209 214 205 210 209 206 209 204 194 191 192 189 191 194 189 207 224 9 20 17 5 359 322 225 207 200 200 198 75 24
305 300 298 297 283 266 252 252 245 239 243 242 230 218 207 199 202 200 203 208 202 197 197 199 197 198 202 196 207 208 10 24 13 359 345 307 222 217 209 210 222 328 21
315 312 304 303 286 255 248 250 246 236 235 242 237 232 202 206 207 207 208 206 202 201 200 203 202 206 204 205 211 208 206 29 358 354 337 297 218 225 217 217 228 279 28
321 311 312 314 307 273 247 248 243 240 236 235 231 227 197 205 214 214 211 209 205 208 208 205 209 214 213 212 217 221 224 213 288 324 337 313 241 225 226 222 230 249 268
327 326 316 314 316 317 286 247 243 232 231 231 232 223 201 201 209 213 212 209 208 212 214 214 217 217 220 220 225 229 235 236 231 263 285 294 240 234 232 232 229 245 252
324 334 338 332 319 328 326 288 247 233 229 229 229 227 213 205 201 208 209 208 208 210 216 221 220 222 224 224 226 234 238 239 232 239 250 242 231 243 244 245 242 238 248
329 335 345 351 348 353 36 83 166 177 193 219 222 213 198 193 194 200 201 204 208 209 219 226 225 223 222 226 226 229 237 241 243 242 242 241 234 236 250 250 248 246 248
350 346 352 5 21 29 60 98 114 134 142 154 164 170 175 176 185 191 194 197 201 208 225 231 228 226 224 229 232 235 237 239 241 243 240 240 243 245 245 251 252 250 248
Wind_Speed_850mb
42 57 69 76 83 84 83 80 85 84 71 68 55 56 51 44 39 35 31 27 23 20 18 15 13 12 10 9 7 9 10 15 26 32 36 38 40 35 30 26 27 30 34
31 44 58 68 71 71 72 69 77 68 66 62 61 50 49 44 39 35 30 26 23 20 17 14 15 12 9 8 8 9 10 12 22 34 34 35 34 30 29 31 30 34 35
23 34 45 54 61 65 68 67 71 67 63 64 64 53 49 42 39 34 31 27 23 19 15 13 12 10 8 7 7 10 10 12 17 30 35 31 32 36 37 36 35 34 37
33 21 31 40 47 55 59 61 62 66 62 64 60 47 46 40 38 35 31 28 23 18 13 12 10 8 6 8 6 8 8 14 20 28 32 32 34 37 43 47 45 43 45
38 29 20 28 37 44 53 55 57 56 56 57 47 47 44 40 38 35 32 28 22 18 14 11 7 4 6 8 10 11 11 16 24 31 34 38 39 43 48 51 58 60 55
30 31 27 23 25 37 46 46 54 52 43 48 49 48 45 43 40 37 33 27 23 17 13 9 6 5 6 8 13 16 15 18 23 31 36 36 40 44 47 53 60 67 72
24 25 23 25 34 40 40 43 45 43 50 58 55 50 46 43 40 36 32 26 22 19 15 11 6 4 7 7 9 13 15 18 22 30 34 33 40 44 47 53 56 62 65
29 25 22 21 23 34 43 49 49 54 62 56 55 49 47 42 39 35 31 27 25 20 17 11 6 5 6 7 9 11 13 15 18 23 26 28 33 39 45 52 58 63 55
47 27 28 23 26 33 41 47 55 58 55 55 51 50 46 42 40 36 32 27 24 23 17 13 9 8 6 8 11 10 13 14 15 15 23 25 32 41 44 51 52 47 45
66 41 27 35 32 31 35 45 50 51 54 53 50 46 42 40 39 35 31 31 26 22 20 18 12 6 6 9 13 14 12 12 14 16 18 24 33 40 46 44 34 34 35
55 60 35 33 40 32 32 42 48 52 51 52 51 46 43 43 35 37 37 27 24 26 25 18 13 9 9 9 14 17 15 11 14 16 18 24 31 39 38 27 23 27 25
46 52 56 34 40 43 45 48 50 55 56 56 51 49 48 42 48 45 34 29 30 27 26 20 16 13 11 10 13 16 16 15 14 15 19 23 29 35 28 18 20 20 25
46 42 47 46 31 42 54 60 64 66 66 62 58 55 52 55 52 41 35 34 34 33 24 23 18 16 14 10 10 14 15 13 13 14 16 18 27 28 18 12 14 17 24
54 45 42 42 38 37 46 63 62 68 69 67 63 64 60 58 51 46 43 42 35 32 31 24 22 18 15 11 8 10 14 12 9 9 9 14 23 21 13 6 7 14 20
55 49 41 40 36 38 43 61 62 68 72 74 79 67 62 57 56 46 40 40 36 32 28 27 24 20 17 11 5 8 11 9 7 5 5 13 18 14 7 3 7 12 15
56 51 45 40 42 39 47 54 65 75 88 78 80 71 60 54 46 43 38 39 37 40 34 26 22 21 18 11 4 4 8 8 6 3 3 12 11 8 2 6 9 11 12
51 49 49 43 40 48 48 56 64 63 72 75 80 73 56 48 47 43 46 47 45 40 32 27 24 19 15 10 7 3 5 9 10 3 4 8 7 2 2 6 6 6 8
50 47 47 47 41 46 52 54 54 64 61 72 74 75 57 52 52 52 52 52 52 46 34 28 25 21 18 13 7 5 4 12 13 6 4 7 3 2 5 6 5 3 8
46 45 44 43 42 41 52 51 52 56 61 63 73 84 64 56 55 57 59 60 54 42 37 33 26 22 19 13 10 6 3 10 16 12 5 4 4 5 8 8 4 2 7
37 36 37 37 37 38 44 50 50 51 61 65 64 70 74 65 70 67 66 64 51 42 39 34 30 24 19 15 12 7 0 8 14 15 8 3 6 8 10 9 5 1 6
35 36 34 32 28 28 36 48 51 49 53 62 60 63 85 78 78 75 72 62 53 48 42 36 30 29 24 17 13 8 3 4 9 13 10 5 8 10 13 11 7 3 3
31 31 29 29 26 18 27 38 44 45 48 54 59 65 87 80 72 69 65 57 52 49 45 41 35 32 27 21 15 10 7 4 5 7 7 5 10 11 14 13 9 6 3
28 24 23 20 20 17 15 26 35 39 43 49 52 64 89 91 73 65 62 60 56 51 48 43 39 36 32 25 20 15 12 11 8 9 7 3 7 13 13 15 12 9 7
25 23 20 17 14 8 6 9 17 29 35 42 56 62 86 87 69 63 63 59 57 53 53 49 42 38 35 32 27 23 19 16 14 13 11 7 8 13 14 16 16 14 13
19 18 16 13 12 9 6 5 7 15 19 29 46 55 66 67 64 62 59 55 53 49 50 48 41 40 39 38 33 29 27 22 20 18 17 15 14 14 17 19 21 19 17
15 15 14 13 10 6 4 7 11 15 27 35 37 37 40 46 49 50 51 51 47 41 44 46 45 41 37 37 36 34 32 29 29 28 25 24 22 21 20 22 25 24 23
Wind_Direction_850mb
261 243 235 231 227 229 223 223 219 212 209 207 204 208 203 208 212 214 215 215 214 215 218 223 231 234 237 245 272 287 280 290 297 319 330 338 336 330 334 333 327 327 329
267 249 237 233 226 224 225 223 221 207 209 205 212 202 200 202 206 208 209 208 207 208 213 223 232 233 236 251 281 300 295 300 318 326 337 345 349 342 338 328 329 329 331
296 259 247 238 229 224 225 219 210 210 202 200 202 200 199 198 201 201 201 198 198 202 209 225 234 238 240 263 289 306 295 310 317 328 338 344 344 343 338 333 331 332 336
332 290 255 243 235 228 220 211 204 197 196 202 201 192 194 194 194 194 195 193 192 193 200 216 230 243 266 278 278 293 304 321 329 329 340 339 339 344 339 337 334 337 331
342 316 290 255 234 225 218 209 203 197 196 201 194 191 191 192 193 190 190 189 188 189 194 208 231 269 300 275 251 266 294 328 339 333 334 326 335 340 336 333 330 331 330
314 316 294 262 247 216 206 196 196 191 193 207 199 196 193 190 188 188 190 188 188 189 192 204 230 283 309 294 261 263 281 309 327 323 319 322 333 333 335 330 330 331 331
314 295 280 276 244 228 207 203 208 206 211 204 196 195 191 190 189 189 190 190 191 194 196 201 222 289 314 304 293 279 277 294 304 314 314 322 325 331 328 327 328 329 327
315 303 264 242 235 226 217 211 209 211 208 198 197 192 193 192 191 191 191 194 199 200 204 205 224 269 290 322 308 291 266 275 299 311 319 325 324 325 328 328 330 327 328
347 308 283 231 227 227 227 220 215 208 202 201 198 196 194 195 194 195 196 201 205 208 210 216 224 244 296 317 324 316 280 277 292 314 318 329 331 326 328 329 330 336 348
345 336 287 257 233 225 226 230 221 212 207 203 201 199 199 199 200 198 202 205 207 215 220 228 221 245 293 318 323 323 309 270 288 302 322 331 329 327 332 335 345 356 3
331 339 317 258 239 219 225 223 226 218 210 206 206 202 203 204 204 211 209 205 208 221 225 230 234 257 289 315 322 324 326 290 282 299 315 320 327 333 335 346 2 9 27
317 327 330 299 254 234 222 220 217 220 213 210 206 210 208 205 214 211 210 208 213 219 223 228 238 252 273 299 315 324 327 313 275 298 305 321 331 337 341 358 10 29 40
321 310 320 315 292 251 232 224 224 219 213 211 212 212 210 215 214 212 212 216 216 216 216 222 226 239 253 276 306 324 334 329 295 281 305 325 336 340 348 6 25 44 43
316 314 303 312 301 276 244 229 228 222 216 215 215 218 213 217 216 213 215 216 210 210 216 216 222 221 234 253 293 327 350 334 301 293 314 333 340 345 354 17 61 62 51
309 310 309 303 296 280 263 238 225 226 226 221 205 210 217 217 216 216 217 213 207 205 209 214 211 203 214 230 277 344 349 333 330 315 321 337 346 342 359 75 105 89 65
305 307 306 303 295 278 266 262 240 229 230 226 206 226 223 223 223 221 212 207 201 204 203 203 201 196 202 212 224 335 342 359 7 347 307 339 349 336 2 131 125 106 68
301 303 303 299 291 283 261 256 257 249 241 231 215 228 222 218 218 218 210 207 204 200 198 193 201 188 185 200 218 258 348 24 26 26 332 349 338 326 184 160 142 108 56
298 298 298 297 291 277 264 256 255 253 240 229 214 213 218 211 211 213 205 203 201 200 191 191 196 190 187 192 208 253 357 23 20 10 339 340 281 208 193 189 158 93 31
302 299 296 294 288 275 261 252 250 252 251 237 218 209 214 205 210 209 206 209 204 194 191 192 189 191 194 189 207 224 9 20 17 5 359 322 225 207 200 200 198 75 24
305 300 298 297 283 266 252 252 245 239 243 242 230 218 207 199 202 200 203 208 202 197 197 199 197 198 202 196 207 208 10 24 13 359 345 307 222 217 209 210 222 328 21
315 312 304 303 286 255 248 250 246 236 235 242 237 232 202 206 207 207 208 206 202 201 200 203 202 206 204 205 211 208 206 29 358 354 337 297 218 225 217 217 228 279 28
321 311 312 314 307 273 247 248 243 240 236 235 231 227 197 205 214 214 211 209 205 208 208 205 209 214 213 212 217 221 224 213 288 324 337 313 241 225 226 222 230 249 268
327 326 316 314 316 317 286 247 243 232 231 231 232 223 201 201 209 213 212 209 208 212 214 214 217 217 220 220 225 229 235 236 231 263 285 294 240 234 232 232 229 245 252
324 334 338 332 319 328 326 288 247 233 229 229 229 227 213 205 201 208 209 208 208 210 216 221 220 222 224 224 226 234 238 239 232 239 250 242 231 243 244 245 242 238 248
329 335 345 351 348 353 36 83 166 177 193 219 222 213 198 193 194 200 201 204 208 209 219 226 225 223 222 226 226 229 237 241 243 242 242 241 234 236 250 250 248 246 248
350 346 352 5 21 29 60 98 114 134 142 154 164 170 175 176 185 191 194 197 201 208 225 231 228 226 224 229 232 235 237 239 241 243 240 240 243 245 245 251 252 250 248